Weather in Zharkent

Kazakhstan     44°09′57″N   80°00′13″E
temp.,
°C
wind,
m/s
gust,
m/s
humid.,
%
clouds,
%
prec.,
mm/h
press.,
hPa
HPBL,
m
18 may, tue
tue1800:00+17ne11383 0.1 101711
03:00+15ene22410 0.0 101623
06:00+15ene34460 0.0 101796
09:00+20ese34370 0.0 1016841
12:00+23se32280 0.0 10141728
15:00+25sse21210 0.0 10112206
18:00+25se111911 0.1 10101869
21:00+21ne22274 0.1 101114
19 may, wed
wed1900:00+19n33340 0.1 101020
03:00+17ne22360 0.0 100911
06:00+17ne12400 0.0 100915
09:00+23se13223 0.0 1009773
12:00+26s33170 0.0 10061915
15:00+28ssw441470 0.0 10032114
18:00+28sw891495 0.0 10022050
21:00+23wsw813235 0.0 1004422
20 may, thu
thu2000:00+20nw332982 0.0 100436
03:00+19wnw333260 0.0 100433
06:00+17ene234097 0.0 100662
09:00+21ese2234100 0.0 1006542
12:00+27w10131948 0.0 10023517
15:00+27w11161820 0.0 10013297
18:00+25w9922100 0.0 10011321
21:00+19wsw10133235 0.0 1006425
21 may, fri
fri2100:00+14wsw35360 0.0 1009163
03:00+13e47440 0.0 1011221
06:00+11ene36460 0.0 1014226
09:00+16ese33340 0.0 1015920
12:00+19ssw34260 0.0 10141749
15:00+23s34120 0.0 10112628
18:00+23sw641626 0.0 10101951
21:00+17ese14260 0.0 1014207
22 may, sat
sat2200:00+13e58280 0.0 1019257
03:00+11ene36350 0.0 1021168
06:00+11ene24340 0.0 102280
09:00+16ese33230 0.0 1022798
12:00+20ese34160 0.0 10191332
15:00+24ese34130 0.0 10161532
18:00+24ese34130 0.0 10151396
21:00+19nne22200 0.0 101611